Mobridge, SD

7:17 PM CST on November 24, 2017 (GMT -0600)
Mobridge Municipal

Weather History for KMBG - March, 2013

Change the Weather History Date:

Sunday, March 3, 2013

  Actual Average Record
Temperature  
Mean Temperature 34 °F 26 °F  
Max Temperature 40 °F 37 °F 67 °F (2000)
Min Temperature 28 °F 16 °F -22 °F (1916)
Degree Days  
Heating Degree Days 31 39  
Month to date heating degree days 99 118  
Since 1 July heating degree days 5915 6093  
Cooling Degree Days 0 0  
Month to date cooling degree days 0 0  
Year to date cooling degree days 0 0  
Moisture  
Dew Point 29 °F    
Average Humidity 78    
Maximum Humidity 92    
Minimum Humidity 64    
Precipitation  
Precipitation 0.01 in 0.02 in 0.85 in (1966)
Month to date precipitation 0.01 0.07  
Year to date precipitation 0.97 0.80  
Snow  
Snow T in - - ()
Month to date snowfall T  
Since 1 July snowfall 24.3  
Snow Depth 0.00 in    
Sea Level Pressure  
Sea Level Pressure 29.73 in    
Wind  
Wind Speed 11 mph (ESE)    
Max Wind Speed 20 mph    
Max Gust Speed 23 mph    
Visibility 8 miles    
Events      
T = Trace of Precipitation, MM = Missing Value Source: NWS Daily Summary

Daily Weather History Graph

Daily Weather History Graph

Search for Another Location

Airport or City:

Trip Planner

Search our weather history database for the weather conditions in past years. The results will help you decide how hot, cold, wet, or windy it might be!

Date:

Astronomy

Mar. 03, 2013 Rise Set
Actual Time 7:15 AM CST 6:31 PM CST
Civil Twilight 6:46 AM CST 7:01 PM CST
Nautical Twilight 6:12 AM CST 7:35 PM CST
Astronomical Twilight 5:37 AM CST 8:10 PM CST
Moon 12:31 AM CST (3/3) 10:12 AM CST (3/3)
Length of Visible Light 12h 15m
Length of Day
11h 15m
Waning Gibbous, 63% of the Moon is Illuminated
Mar 3
Waning Gibbous
Mar 4
Last Quarter
Mar 11
New
Mar 19
First Quarter
Mar 27
Full

Hourly Weather History & Observations

Time (CST) Temp. Windchill Dew Point Humidity Pressure Visibility Wind Dir Wind Speed Gust Speed Precip Events Conditions
12:52 AM 30.9 °F 23.5 °F 27.0 °F 85% 29.94 in 10.0 mi East 8.1 mph - N/A   Clear
1:52 AM 30.9 °F 23.5 °F 27.0 °F 85% 29.92 in 10.0 mi East 8.1 mph - N/A   Clear
2:52 AM 30.9 °F 23.5 °F 27.0 °F 85% 29.90 in 10.0 mi East 8.1 mph - N/A   Clear
3:52 AM 30.0 °F 21.7 °F 27.0 °F 88% 29.86 in 10.0 mi East 9.2 mph - N/A   Clear
4:52 AM 28.9 °F 20.4 °F 26.1 °F 89% 29.85 in 10.0 mi East 9.2 mph - N/A   Clear
5:52 AM 28.9 °F 19.2 °F 26.1 °F 89% 29.84 in 10.0 mi East 11.5 mph - N/A   Clear
6:52 AM 28.9 °F 19.8 °F 26.1 °F 89% 29.83 in 10.0 mi East 10.4 mph - N/A   Mostly Cloudy
7:52 AM 28.9 °F 19.2 °F 26.1 °F 89% 29.82 in 10.0 mi East 11.5 mph - N/A   Overcast
8:52 AM 32.0 °F 23.0 °F 28.0 °F 85% 29.80 in 10.0 mi ESE 11.5 mph - N/A   Partly Cloudy
9:52 AM 32.0 °F 24.2 °F 27.0 °F 82% 29.79 in 10.0 mi South 9.2 mph - N/A   Scattered Clouds
10:52 AM 33.1 °F 25.5 °F 28.0 °F 82% 29.77 in 10.0 mi SSE 9.2 mph - N/A   Partly Cloudy
11:52 AM 35.1 °F 25.5 °F 28.0 °F 76% 29.75 in 10.0 mi SSE 15.0 mph - N/A   Clear
12:52 PM 39.0 °F 31.4 °F 28.9 °F 67% 29.71 in 10.0 mi SE 12.7 mph - N/A   Mostly Cloudy
1:52 PM 39.0 °F 30.3 °F 30.0 °F 70% 29.67 in 10.0 mi SSE 16.1 mph - N/A   Mostly Cloudy
2:52 PM 37.0 °F 31.0 °F 30.0 °F 76% 29.67 in 9.0 mi SE 8.1 mph - N/A   Overcast
3:52 PM 36.0 °F 28.5 °F 30.0 °F 79% 29.66 in 6.0 mi ESE 10.4 mph - N/A   Haze
4:52 PM 34.0 °F 26.6 °F 30.9 °F 89% 29.65 in 4.0 mi SE 9.2 mph - 0.00 in   Overcast
5:52 PM 34.0 °F 28.0 °F 30.9 °F 89% 29.65 in 3.0 mi ESE 6.9 mph - 0.01 in   Overcast
6:52 PM 34.0 °F 26.0 °F 30.9 °F 89% 29.65 in 5.0 mi ESE 10.4 mph - 0.00 in   Overcast
7:52 PM 33.1 °F 25.5 °F 30.0 °F 89% 29.65 in 5.0 mi ESE 9.2 mph - N/A   Overcast
8:50 PM 33.8 °F 26.4 °F 30.2 °F 87% 29.60 in 5.0 mi SE 9.2 mph - 0.00 in   Overcast
8:52 PM 33.1 °F 24.4 °F 30.0 °F 89% 29.65 in 5.0 mi SE 11.5 mph - 0.00 in   Overcast
9:32 PM 32.0 °F 23.6 °F 30.2 °F 93% 29.58 in 5.0 mi ESE 10.4 mph - N/A   Overcast
9:52 PM 32.0 °F 24.2 °F 30.0 °F 92% 29.64 in 5.0 mi SE 9.2 mph - N/A   Overcast
10:31 PM 32.0 °F 21.2 °F 28.4 °F 87% 29.58 in 6.0 mi SE 16.1 mph - N/A   Overcast
10:52 PM 32.0 °F 22.1 °F 28.9 °F 88% 29.63 in 6.0 mi SE 13.8 mph - N/A   Overcast
11:52 PM 32.0 °F 22.1 °F 28.9 °F 88% 29.62 in 6.0 mi SE 13.8 mph - N/A   Overcast